Tracking 23732 objects as of 28-Sep-2021
HD Live streaming from Space Station
objects crossing your sky now

DELTA 1 DEB

Track DELTA 1 DEB now!
10-day predictions


NORAD ID: 12266
Int'l Code: 1978-026DK
Perigee: 818.3 km
Apogee: 1,046.3 km
Inclination: 98.7 °
Period: 103.5 minutes
Semi major axis: 7303 km
RCS: 0.0032 m2 (small)
Launch date: March 5, 1978
Source: United States (US)
Launch site: AIR FORCE WESTERN TEST RANGE (AFWTR)

Note: This is SATELLITE DEBRIS
aabbcc
Your satellite tracking list
Your tracking list is empty




NASA's NSSDC Master Catalog

Two Line Element Set (TLE):
1 12266U 78026DK  21271.07208667  .00000484  00000-0  37768-3 0  9999
2 12266  98.7379 128.9973 0156094 119.1806 242.5073 13.91003854 44119
Source of the keplerian elements: AFSPC